Mount Low, Australia

1:52 AM AEST on September 27, 2017 (GMT +1000)
Mount Low

Weather History for 94294 - January, 2014

Change the Weather History Date:

Thursday, January 9, 2014

  Actual Average Record
Temperature  
Mean Temperature 82 °F -  
Max Temperature 88 °F 89 °F - ()
Min Temperature 75 °F 76 °F - ()
Cooling Degree Days 16    
Growing Degree Days 32 (Base 50)    
Moisture  
Dew Point 72 °F    
Average Humidity 71    
Maximum Humidity 89    
Minimum Humidity 47    
Precipitation  
Precipitation 0.08 in 0.32 in - ()
Sea Level Pressure  
Sea Level Pressure 29.85 in    
Wind  
Wind Speed 11 mph ()    
Max Wind Speed 18 mph    
Max Gust Speed -    
Visibility 6.8 miles    
Events Rain , Thunderstorm    
T = Trace of Precipitation, MM = Missing Value Source: Averaged Metar Reports

Daily Weather History Graph

Daily Weather History Graph

Search for Another Location

Airport or City:

Trip Planner

Search our weather history database for the weather conditions in past years. The results will help you decide how hot, cold, wet, or windy it might be!

Date:

Astronomy

Jan. 09, 2014 Rise Set
Actual Time 5:43 AM AEST 6:56 PM AEST
Civil Twilight 5:19 AM AEST 7:20 PM AEST
Nautical Twilight 4:50 AM AEST 7:49 PM AEST
Astronomical Twilight 4:20 AM AEST 8:18 PM AEST
Moon 1:08 PM AEST (1/9) 12:11 AM AEST (1/9)
Length of Visible Light 14h 01m
Length of Day
13h 13m
First Quarter, 59% of the Moon is Illuminated
Jan 9
First Quarter
Jan 16
Full
Jan 24
Last Quarter
Jan 31
New
Feb 7
First Quarter

Hourly Weather History & Observations

Time (AEST) Temp. Heat Index Dew Point Humidity Pressure Visibility Wind Dir Wind Speed Gust Speed Precip Events Conditions
12:00 AM 82 °F - 73 °F 67% 29.84 in - East 10.4 mph - -  
12:00 AM 82.4 °F 88.2 °F 73.4 °F 74% 29.83 in 6.2 mi East 10.4 mph - N/A   Scattered Clouds
12:30 AM 82.4 °F 88.2 °F 73.4 °F 74% 29.83 in 6.2 mi East 10.4 mph - N/A   Mostly Cloudy
1:00 AM 82 °F - 73 °F 68% 29.83 in - East 10.4 mph - -  
1:00 AM 82.4 °F 88.2 °F 73.4 °F 74% 29.80 in 6.2 mi East 10.4 mph - N/A   Scattered Clouds
1:30 AM 82.4 °F 88.2 °F 73.4 °F 74% 29.80 in 6.2 mi East 11.5 mph - N/A   Scattered Clouds
2:00 AM 80.6 °F 84.6 °F 71.6 °F 74% 29.80 in 6.2 mi East 9.2 mph - N/A   Unknown
2:30 AM 80.6 °F 85.4 °F 73.4 °F 79% 29.80 in 6.2 mi East 9.2 mph - N/A   Scattered Clouds
3:00 AM 80 °F - 73 °F 75% 29.79 in - ESE 12.7 mph - -   Overcast
3:00 AM 80.6 °F 85.4 °F 73.4 °F 79% 29.77 in 6.2 mi ESE 12.7 mph - N/A Rain Light Rain
3:30 AM 77.0 °F - 73.4 °F 89% 29.77 in 6.2 mi SSE 8.1 mph - N/A   Unknown
4:00 AM 78 °F - 73 °F 81% 29.81 in - SE 8.1 mph - -  
4:00 AM 77.0 °F - 73.4 °F 89% 29.80 in 6.2 mi SE 8.1 mph - N/A Rain Light Rain Showers
4:30 AM 77.0 °F - 73.4 °F 89% 29.80 in 6.2 mi SE 8.1 mph - N/A   Scattered Clouds
5:00 AM 77.0 °F - 73.4 °F 89% 29.80 in 6.2 mi SE 6.9 mph - N/A   Scattered Clouds
5:30 AM 77.0 °F - 73.4 °F 89% 29.80 in 6.2 mi SE 11.5 mph - N/A Rain Light Rain Showers
6:00 AM 77 °F - 72 °F 81% 29.84 in 9 mi SE 9.2 mph - - Rain Light Rain Showers
6:00 AM 77.0 °F - 71.6 °F 83% 29.83 in 6.2 mi SE 9.2 mph - N/A Rain Light Rain Showers
6:30 AM 78.8 °F - 73.4 °F 83% 29.83 in 6.2 mi SSE 8.1 mph - N/A   Mostly Cloudy
7:00 AM 79 °F - 74 °F 79% 29.87 in - SE 9.2 mph - -  
7:00 AM 78.8 °F - 73.4 °F 83% 29.86 in 6.2 mi SE 9.2 mph - N/A   Mostly Cloudy
7:30 AM 80.6 °F 85.4 °F 73.4 °F 79% 29.86 in 6.2 mi SE 10.4 mph - N/A Rain Light Rain Showers
8:00 AM 80.6 °F 85.4 °F 73.4 °F 79% 29.86 in 6.2 mi SE 10.4 mph - N/A   Partly Cloudy
8:30 AM 82.4 °F 88.2 °F 73.4 °F 74% 29.86 in 6.2 mi ESE 12.7 mph - N/A   Partly Cloudy
9:00 AM 85 °F - 73 °F 60% 29.87 in 9 mi SE 13.8 mph - - Rain Light Rain Showers
9:00 AM 84.2 °F 90.9 °F 73.4 °F 70% 29.86 in 6.2 mi SE 13.8 mph - N/A Rain Light Rain Showers
9:26 AM 80.6 °F 85.4 °F 73.4 °F 79% 29.89 in 3.7 mi ESE 11.5 mph - N/A Rain Rain Showers
9:30 AM 77.0 °F - 71.6 °F 83% 29.89 in 3.1 mi ENE 15.0 mph - N/A Rain Rain Showers
9:49 AM 78.8 °F - 75.2 °F 89% 29.89 in 5.0 mi NE 12.7 mph - N/A Rain , Thunderstorm Light Thunderstorms and Rain
10:00 AM 80 °F - 75 °F 80% 29.90 in - NE 9.2 mph - -  
10:00 AM 78.8 °F - 75.2 °F 89% 29.89 in 6.2 mi NE 9.2 mph - N/A Rain , Thunderstorm Light Rain Showers
10:30 AM 80.6 °F 84.6 °F 71.6 °F 74% 29.89 in 6.2 mi NE 15.0 mph - N/A Rain Light Rain Showers
11:00 AM 84.2 °F 90.9 °F 73.4 °F 70% 29.89 in 6.2 mi East 8.1 mph - N/A   Mostly Cloudy
11:30 AM 84.2 °F 89.6 °F 71.6 °F 66% 29.89 in 6.2 mi East 12.7 mph - N/A   Mostly Cloudy
12:00 PM 85 °F - 72 °F 58% 29.88 in 9 mi East 13.8 mph - - Rain Light Rain Showers
12:00 PM 86.0 °F 93.4 °F 73.4 °F 66% 29.89 in 6.2 mi East 13.8 mph - N/A Rain Light Rain Showers
12:30 PM 86.0 °F 91.8 °F 71.6 °F 62% 29.86 in 6.2 mi ENE 13.8 mph - N/A   Mostly Cloudy
1:00 PM 87 °F - 69 °F 47% 29.88 in - ENE 15.0 mph - -  
1:00 PM 87.8 °F 92.6 °F 69.8 °F 55% 29.86 in 6.2 mi ENE 15.0 mph - N/A   Mostly Cloudy
1:30 PM 86.0 °F 91.8 °F 71.6 °F 62% 29.86 in 6.2 mi ENE 16.1 mph - N/A   Mostly Cloudy
2:00 PM 86.0 °F 91.8 °F 71.6 °F 62% 29.83 in 6.2 mi ENE 13.8 mph - N/A   Mostly Cloudy
2:30 PM 87.8 °F 92.6 °F 69.8 °F 55% 29.83 in 6.2 mi ENE 16.1 mph - N/A   Mostly Cloudy
3:00 PM 87 °F - 71 °F 50% 29.81 in 16 mi ENE 13.8 mph - -   Scattered Clouds
3:00 PM 87.8 °F 93.8 °F 71.6 °F 58% 29.80 in 6.2 mi ENE 13.8 mph - N/A   Mostly Cloudy
3:30 PM 87.8 °F 92.6 °F 69.8 °F 55% 29.80 in 6.2 mi ENE 18.4 mph - N/A   Scattered Clouds
4:00 PM 88 °F - 71 °F 48% 29.82 in - ENE 18.4 mph - -  
4:00 PM 87.8 °F 93.8 °F 71.6 °F 58% 29.80 in 6.2 mi ENE 18.4 mph - N/A   Mostly Cloudy
4:30 PM 87.8 °F 92.6 °F 69.8 °F 55% 29.80 in 6.2 mi ENE 17.3 mph - N/A   Mostly Cloudy
5:00 PM 86.0 °F 91.8 °F 71.6 °F 62% 29.80 in 6.2 mi ENE 17.3 mph - N/A   Mostly Cloudy
5:30 PM 86.0 °F 91.8 °F 71.6 °F 62% 29.80 in 6.2 mi ENE 17.3 mph - N/A   Scattered Clouds
6:00 PM 84 °F - 72 °F 61% 29.83 in 16 mi ENE 15.0 mph - -   Scattered Clouds
6:00 PM 84.2 °F 90.9 °F 73.4 °F 70% 29.83 in 6.2 mi ENE 15.0 mph - N/A   Scattered Clouds
6:30 PM 84.2 °F 89.6 °F 71.6 °F 66% 29.83 in 6.2 mi East 15.0 mph - N/A   Mostly Cloudy
7:00 PM 83 °F - 72 °F 61% 29.88 in - East 12.7 mph - -  
7:00 PM 82.4 °F 87.2 °F 71.6 °F 70% 29.86 in 6.2 mi East 12.7 mph - N/A   Mostly Cloudy
7:30 PM 82.4 °F 87.2 °F 71.6 °F 70% 29.86 in 6.2 mi East 12.7 mph - N/A   Mostly Cloudy
8:00 PM 82.4 °F 87.2 °F 71.6 °F 70% 29.86 in 6.2 mi East 10.4 mph - N/A   Mostly Cloudy
8:30 PM 82.4 °F 87.2 °F 71.6 °F 70% 29.89 in 6.2 mi ESE 10.4 mph - N/A   Mostly Cloudy
9:00 PM 83 °F - 72 °F 62% 29.89 in 16 mi ESE 11.5 mph - - Rain Light Rain Showers
9:00 PM 82.4 °F 87.2 °F 71.6 °F 70% 29.89 in 6.2 mi ESE 11.5 mph - N/A Rain Light Rain Showers
9:30 PM 82.4 °F 87.2 °F 71.6 °F 70% 29.89 in 6.2 mi East 11.5 mph - N/A   Mostly Cloudy
10:00 PM 80 °F - 72 °F 71% 29.91 in - ESE 13.8 mph - -  
10:00 PM 80.6 °F 84.6 °F 71.6 °F 74% 29.89 in 6.2 mi ESE 13.8 mph - N/A   Mostly Cloudy
10:30 PM 80.6 °F 85.4 °F 73.4 °F 79% 29.89 in 6.2 mi SE 10.4 mph - N/A   Scattered Clouds
11:00 PM 80.6 °F 85.4 °F 73.4 °F 79% 29.89 in 6.2 mi SSE 8.1 mph - N/A   Scattered Clouds
11:30 PM 78.8 °F - 73.4 °F 83% 29.89 in 6.2 mi ESE 11.5 mph - N/A Rain Light Rain Showers